SIA830 WSSS-ZSPD

Flight info

Callsign SIA830
Flight time N/A
Altitude 36000
Route VMR9B VMR M771 DUDIS/K0917F360 M771 DOSUT/N0494F360 M771 DUMOL J103 BEKOL/K0915S1095 A461 SHL G471 PLT A599 ELNEX G204 SHZ W58 BK BK91A
Aircraft B77W/H-SDE1E2E3FGHIJ4J5M1P2RWXYZ/LB1D1

Departure

Time 2026-05-08 06:55
Airport Singapore Changi Airport (WSSS)

Arrival

Time N/A
Airport Shanghai Pudong International Airport (ZSPD)
Time Latitude Longitude Altitude Speed Heading
2026-05-08 06:34 1.36051 103.98717 34 ft 0 kts 114°
2026-05-08 06:43 1.36054 103.98710 34 ft 2 kts 114°
2026-05-08 06:43 1.36058 103.98701 34 ft 2 kts 114°
2026-05-08 06:43 1.36063 103.98688 34 ft 2 kts 107°
2026-05-08 06:43 1.36067 103.98673 34 ft 2 kts 100°
2026-05-08 06:44 1.36069 103.98658 34 ft 2 kts 94°
2026-05-08 06:44 1.36070 103.98644 34 ft 2 kts 88°
2026-05-08 06:44 1.36068 103.98628 34 ft 2 kts 82°
2026-05-08 06:44 1.36066 103.98614 34 ft 2 kts 76°
2026-05-08 06:45 1.36061 103.98600 34 ft 2 kts 69°
2026-05-08 06:45 1.36056 103.98586 34 ft 2 kts 63°
2026-05-08 06:45 1.36052 103.98580 34 ft 0 kts 60°
2026-05-08 06:47 1.36055 103.98584 34 ft 1 kts 60°
2026-05-08 06:47 1.36062 103.98598 34 ft 3 kts 60°
2026-05-08 06:48 1.36079 103.98624 34 ft 5 kts 52°
2026-05-08 06:48 1.36118 103.98652 34 ft 8 kts 27°
2026-05-08 06:48 1.36178 103.98678 34 ft 10 kts 23°
2026-05-08 06:48 1.36252 103.98709 34 ft 12 kts 23°
2026-05-08 06:49 1.36336 103.98746 34 ft 14 kts 24°
2026-05-08 06:49 1.36431 103.98789 34 ft 15 kts 24°
2026-05-08 06:49 1.36528 103.98814 34 ft 13 kts
2026-05-08 06:49 1.36620 103.98809 34 ft 12 kts 355°
2026-05-08 06:50 1.36703 103.98809 34 ft 11 kts 11°
2026-05-08 06:50 1.36780 103.98841 34 ft 11 kts 41°
2026-05-08 06:50 1.36790 103.98916 34 ft 11 kts 112°
2026-05-08 06:50 1.36758 103.98994 34 ft 12 kts 112°
2026-05-08 06:51 1.36723 103.99078 34 ft 13 kts 112°
2026-05-08 06:51 1.36685 103.99170 34 ft 14 kts 112°
2026-05-08 06:51 1.36644 103.99266 34 ft 15 kts 114°
2026-05-08 06:51 1.36599 103.99365 34 ft 16 kts 114°
2026-05-08 06:52 1.36554 103.99471 34 ft 16 kts 113°
2026-05-08 06:52 1.36507 103.99579 34 ft 17 kts 113°
2026-05-08 06:52 1.36460 103.99689 34 ft 16 kts 113°
2026-05-08 06:52 1.36417 103.99789 34 ft 14 kts 113°
2026-05-08 06:53 1.36364 103.99868 34 ft 12 kts 153°
2026-05-08 06:53 1.36282 103.99881 34 ft 11 kts 175°
2026-05-08 06:53 1.36210 103.99893 34 ft 9 kts 176°
2026-05-08 06:53 1.36152 103.99882 34 ft 5 kts 203°
2026-05-08 06:54 1.36138 103.99876 34 ft 0 kts 203°
2026-05-08 06:54 1.36137 103.99875 34 ft 2 kts 203°
2026-05-08 06:55 1.36011 103.99822 34 ft 49 kts 203°
2026-05-08 06:55 1.35471 103.99595 35 ft 117 kts 203°
2026-05-08 06:55 1.34512 103.99195 60 ft 173 kts 201°
2026-05-08 06:55 1.33395 103.98723 674 ft 177 kts 202°
2026-05-08 06:56 1.32241 103.98225 1360 ft 182 kts 202°
2026-05-08 06:56 1.31033 103.97713 1740 ft 198 kts 202°
2026-05-08 06:56 1.29719 103.97156 2167 ft 213 kts 202°
2026-05-08 06:56 1.28283 103.96549 2621 ft 230 kts 203°
2026-05-08 06:57 1.26769 103.95908 3109 ft 246 kts 202°
2026-05-08 06:57 1.25133 103.95239 3584 ft 263 kts 197°
2026-05-08 06:57 1.23289 103.95080 4194 ft 271 kts 169°
2026-05-08 06:57 1.21545 103.95794 4922 ft 275 kts 144°
2026-05-08 06:58 1.20039 103.96989 5712 ft 278 kts 138°
2026-05-08 06:58 1.18586 103.98267 6506 ft 280 kts 137°
2026-05-08 06:58 1.17200 103.99622 7191 ft 283 kts 124°
2026-05-08 06:58 1.16407 104.01402 7835 ft 285 kts 98°
2026-05-08 06:59 1.16470 104.03358 8515 ft 285 kts 72°
2026-05-08 06:59 1.17337 104.05131 9219 ft 285 kts 55°
2026-05-08 06:59 1.18502 104.06718 9962 ft 287 kts 52°
2026-05-08 06:59 1.19814 104.08253 10474 ft 298 kts 44°
2026-05-08 07:00 1.21472 104.09600 10840 ft 315 kts 34°
2026-05-08 07:00 1.23417 104.10726 11198 ft 332 kts 26°
2026-05-08 07:00 1.25630 104.11566 11569 ft 348 kts 16°
2026-05-08 07:00 1.28060 104.12038 11973 ft 364 kts
2026-05-08 07:01 1.30664 104.12075 12366 ft 380 kts 356°
2026-05-08 07:01 1.33322 104.11610 12791 ft 395 kts 345°
2026-05-08 07:01 1.35908 104.10602 13387 ft 404 kts 334°
2026-05-08 07:01 1.38296 104.09058 14090 ft 410 kts 322°
2026-05-08 07:02 1.40362 104.07107 14793 ft 416 kts 315°
2026-05-08 07:02 1.42489 104.05138 15480 ft 420 kts 322°
2026-05-08 07:02 1.44860 104.03423 16164 ft 423 kts 328°
2026-05-08 07:02 1.47423 104.01911 16815 ft 428 kts 333°
2026-05-08 07:03 1.50107 104.00574 17475 ft 432 kts 336°
2026-05-08 07:03 1.52865 103.99348 18145 ft 435 kts 339°
2026-05-08 07:03 1.55659 103.98216 18784 ft 438 kts 340°
2026-05-08 07:03 1.58547 103.97117 19417 ft 442 kts 341°
2026-05-08 07:04 1.61448 103.96062 20014 ft 446 kts 342°
2026-05-08 07:04 1.64365 103.95038 20603 ft 449 kts 343°
2026-05-08 07:04 1.67357 103.94011 21164 ft 453 kts 343°
2026-05-08 07:04 1.70340 103.93005 21716 ft 456 kts 344°
2026-05-08 07:05 1.73371 103.91997 22258 ft 460 kts 345°
2026-05-08 07:05 1.76507 103.91257 22774 ft 460 kts 354°
2026-05-08 07:05 1.79671 103.90950 23260 ft 463 kts 358°
2026-05-08 07:05 1.82936 103.90733 23772 ft 467 kts 359°
2026-05-08 07:06 1.86196 103.90524 24271 ft 471 kts 359°
2026-05-08 07:06 1.89455 103.90316 24749 ft 475 kts 359°
2026-05-08 07:06 1.92804 103.90102 25248 ft 478 kts 359°
2026-05-08 07:06 1.96112 103.89891 25711 ft 482 kts 359°
2026-05-08 07:07 1.99483 103.89677 26178 ft 486 kts 359°
2026-05-08 07:07 2.02881 103.89460 26661 ft 489 kts 359°
2026-05-08 07:07 2.06291 103.89243 27147 ft 493 kts 359°
2026-05-08 07:07 2.09749 103.89022 27595 ft 497 kts 359°
2026-05-08 07:08 2.13232 103.88800 28031 ft 500 kts 358°
2026-05-08 07:08 2.16729 103.88577 28459 ft 504 kts 359°
2026-05-08 07:08 2.20252 103.88353 28803 ft 509 kts 359°
2026-05-08 07:08 2.23859 103.88123 29033 ft 517 kts 358°
2026-05-08 07:09 2.27477 103.87892 29638 ft 516 kts 358°
2026-05-08 07:09 2.30996 103.87668 30528 ft 508 kts 359°
2026-05-08 07:09 2.34536 103.87677 31366 ft 499 kts
2026-05-08 07:09 2.37935 103.88184 32007 ft 494 kts 15°
2026-05-08 07:10 2.41232 103.89191 32578 ft 491 kts 24°
2026-05-08 07:10 2.44315 103.90660 33113 ft 490 kts 31°
2026-05-08 07:10 2.47225 103.92411 33704 ft 488 kts 33°
2026-05-08 07:10 2.50117 103.94202 34374 ft 486 kts 33°
2026-05-08 07:11 2.52951 103.95961 35079 ft 482 kts 33°
2026-05-08 07:11 2.55813 103.97739 35684 ft 480 kts 33°
2026-05-08 07:11 2.58652 103.99504 35826 ft 484 kts 33°
2026-05-08 07:11 2.61518 104.01286 35830 ft 483 kts 33°
2026-05-08 07:12 2.67299 104.04883 35827 ft 480 kts 33°
2026-05-08 07:12 2.72995 104.08428 35827 ft 480 kts 33°
2026-05-08 07:13 2.78700 104.11980 35826 ft 481 kts 33°
2026-05-08 07:13 2.84388 104.15521 35826 ft 482 kts 33°
2026-05-08 07:14 2.90096 104.19076 35819 ft 481 kts 33°
2026-05-08 07:14 2.95763 104.22605 35809 ft 482 kts 33°
2026-05-08 07:15 3.01499 104.26177 35806 ft 481 kts 33°
2026-05-08 07:15 3.07178 104.29723 35806 ft 480 kts 33°
2026-05-08 07:16 3.12827 104.33312 35807 ft 481 kts 34°
2026-05-08 07:16 3.18522 104.36867 35805 ft 481 kts 33°
2026-05-08 07:17 3.24210 104.40395 35806 ft 481 kts 33°
2026-05-08 07:17 3.29919 104.43937 35805 ft 481 kts 33°
2026-05-08 07:18 3.35581 104.47452 35806 ft 481 kts 33°
2026-05-08 07:18 3.41299 104.51002 35806 ft 480 kts 33°
2026-05-08 07:19 3.46976 104.54529 35805 ft 480 kts 33°
2026-05-08 07:19 3.52663 104.58064 35805 ft 480 kts 33°
2026-05-08 07:20 3.58359 104.61603 35803 ft 479 kts 33°
2026-05-08 07:20 3.64032 104.65129 35806 ft 480 kts 33°
2026-05-08 07:21 3.69733 104.68674 35814 ft 479 kts 33°
2026-05-08 07:21 3.75444 104.72224 35821 ft 479 kts 33°
2026-05-08 07:22 3.81099 104.75741 35827 ft 479 kts 33°
2026-05-08 07:22 3.86790 104.79282 35827 ft 479 kts 33°
2026-05-08 07:23 3.92503 104.82837 35829 ft 480 kts 33°
2026-05-08 07:23 3.98169 104.86363 35827 ft 478 kts 33°
2026-05-08 07:24 4.03856 104.89903 35828 ft 479 kts 33°
2026-05-08 07:24 4.09550 104.93449 35826 ft 478 kts 33°
2026-05-08 07:25 4.15183 104.96956 35827 ft 477 kts 33°
2026-05-08 07:26 4.23707 105.02262 35822 ft 478 kts 33°
2026-05-08 07:26 4.29373 105.05782 35812 ft 478 kts 33°
2026-05-08 07:27 4.35049 105.09309 35806 ft 477 kts 33°
2026-05-08 07:27 4.40678 105.12807 35806 ft 477 kts 33°
2026-05-08 07:28 4.46339 105.16325 35805 ft 477 kts 33°
2026-05-08 07:28 4.52015 105.19855 35806 ft 477 kts 33°
2026-05-08 07:29 4.57661 105.23365 35805 ft 477 kts 33°
2026-05-08 07:29 4.63326 105.26888 35805 ft 477 kts 33°
2026-05-08 07:30 4.68986 105.30409 35805 ft 477 kts 32°
2026-05-08 07:30 4.74655 105.33937 35804 ft 477 kts 32°
2026-05-08 07:31 4.80322 105.37463 35804 ft 478 kts 32°
2026-05-08 07:31 4.85930 105.41061 35803 ft 476 kts 33°
2026-05-08 07:32 4.91499 105.44698 35803 ft 476 kts 33°
2026-05-08 07:32 4.97045 105.48315 35803 ft 476 kts 33°
2026-05-08 07:33 5.02584 105.51925 35804 ft 476 kts 33°
2026-05-08 07:33 5.08174 105.55566 35803 ft 476 kts 33°
2026-05-08 07:34 5.13739 105.59193 35809 ft 477 kts 33°
2026-05-08 07:34 5.19283 105.62804 35809 ft 476 kts 33°
2026-05-08 07:35 5.24865 105.66442 35817 ft 475 kts 33°
2026-05-08 07:35 5.30408 105.70055 35824 ft 476 kts 33°
2026-05-08 07:36 5.35988 105.73692 35827 ft 475 kts 33°
2026-05-08 07:36 5.41542 105.77313 35825 ft 475 kts 33°
2026-05-08 07:37 5.47080 105.80925 35824 ft 476 kts 33°
2026-05-08 07:37 5.52638 105.84551 35821 ft 476 kts 33°
2026-05-08 07:38 5.58199 105.88178 35816 ft 475 kts 33°
2026-05-08 07:38 5.63761 105.91808 35808 ft 477 kts 33°
2026-05-08 07:39 5.69323 105.95439 35805 ft 477 kts 33°
2026-05-08 07:39 5.74894 105.99076 35805 ft 476 kts 33°
2026-05-08 07:40 5.80444 106.02700 35805 ft 475 kts 33°
2026-05-08 07:40 5.85994 106.06325 35806 ft 477 kts 33°
2026-05-08 07:41 5.91541 106.09950 35803 ft 476 kts 33°
2026-05-08 07:41 5.97128 106.13601 35805 ft 478 kts 33°
2026-05-08 07:42 6.02722 106.17258 35804 ft 478 kts 33°
2026-05-08 07:42 6.08276 106.20888 35804 ft 476 kts 33°
2026-05-08 07:43 6.13824 106.24518 35807 ft 477 kts 33°
2026-05-08 07:43 6.19378 106.28151 35806 ft 476 kts 33°
2026-05-08 07:44 6.24966 106.31807 35806 ft 477 kts 33°
2026-05-08 07:44 6.30549 106.35461 35805 ft 477 kts 33°
2026-05-08 07:45 6.36090 106.39089 35807 ft 476 kts 33°
2026-05-08 07:45 6.41680 106.42750 35804 ft 477 kts 33°
2026-05-08 07:46 6.47249 106.46397 35805 ft 476 kts 33°
2026-05-08 07:46 6.52810 106.50041 35805 ft 477 kts 33°
2026-05-08 07:47 6.58396 106.53702 35808 ft 477 kts 33°
2026-05-08 07:47 6.63973 106.57358 35814 ft 477 kts 33°
2026-05-08 07:48 6.69550 106.61015 35818 ft 476 kts 33°
2026-05-08 07:48 6.75095 106.64652 35818 ft 477 kts 33°
2026-05-08 07:49 6.80658 106.68301 35825 ft 476 kts 33°
2026-05-08 07:49 6.86235 106.71961 35824 ft 476 kts 33°
2026-05-08 07:50 6.91799 106.75614 35826 ft 477 kts 33°
2026-05-08 07:50 6.97361 106.79266 35827 ft 478 kts 33°
2026-05-08 07:51 7.02942 106.82934 35827 ft 477 kts 33°
2026-05-08 07:51 7.08495 106.86588 35826 ft 477 kts 33°
2026-05-08 07:52 7.14068 106.90255 35825 ft 475 kts 33°
2026-05-08 07:52 7.19681 106.93949 35815 ft 477 kts 33°
2026-05-08 07:53 7.25234 106.97606 35806 ft 476 kts 33°
2026-05-08 07:53 7.30797 107.01270 35807 ft 478 kts 33°
2026-05-08 07:54 7.36393 107.04957 35808 ft 477 kts 33°
2026-05-08 07:54 7.41930 107.08606 35805 ft 475 kts 33°
2026-05-08 07:55 7.47495 107.12274 35807 ft 475 kts 33°
2026-05-08 07:55 7.53057 107.15942 35805 ft 475 kts 33°
2026-05-08 07:56 7.58617 107.19610 35805 ft 475 kts 33°
2026-05-08 07:56 7.64137 107.23252 35806 ft 474 kts 33°
2026-05-08 07:57 7.69697 107.26922 35804 ft 475 kts 33°
2026-05-08 07:57 7.75235 107.30579 35805 ft 476 kts 33°
2026-05-08 07:58 7.80790 107.34247 35806 ft 476 kts 33°
2026-05-08 07:58 7.86359 107.37927 35803 ft 475 kts 33°
2026-05-08 07:59 7.91887 107.41579 35805 ft 475 kts 33°
2026-05-08 07:59 7.97432 107.45245 35810 ft 474 kts 33°
2026-05-08 08:00 8.02977 107.48913 35817 ft 475 kts 33°
2026-05-08 08:00 8.08507 107.52571 35822 ft 474 kts 33°
2026-05-08 08:01 8.14047 107.56237 35827 ft 473 kts 33°
2026-05-08 08:01 8.19552 107.59882 35826 ft 474 kts 32°
2026-05-08 08:02 8.25101 107.63556 35829 ft 473 kts 33°
2026-05-08 08:02 8.30602 107.67200 35830 ft 472 kts 33°
2026-05-08 08:03 8.36134 107.70866 35829 ft 472 kts 33°
2026-05-08 08:03 8.41633 107.74512 35828 ft 471 kts 33°
2026-05-08 08:04 8.47133 107.78159 35828 ft 472 kts 33°
2026-05-08 08:04 8.52623 107.81801 35825 ft 471 kts 33°
2026-05-08 08:05 8.58096 107.85432 35819 ft 471 kts 32°
2026-05-08 08:05 8.63585 107.89075 35811 ft 470 kts 32°
2026-05-08 08:06 8.69093 107.92734 35807 ft 470 kts 32°
2026-05-08 08:06 8.74544 107.96355 35806 ft 470 kts 32°
2026-05-08 08:07 8.80047 108.00011 35805 ft 470 kts 32°
2026-05-08 08:07 8.85547 108.03667 35805 ft 470 kts 32°
2026-05-08 08:08 8.91016 108.07304 35804 ft 469 kts 32°
2026-05-08 08:08 8.96477 108.10938 35804 ft 470 kts 32°
2026-05-08 08:09 9.01955 108.14583 35806 ft 469 kts 32°
2026-05-08 08:09 9.07408 108.18213 35804 ft 469 kts 32°
2026-05-08 08:10 9.12869 108.21850 35811 ft 471 kts 32°
2026-05-08 08:10 9.18386 108.25526 35809 ft 471 kts 33°
2026-05-08 08:11 9.23851 108.29168 35808 ft 470 kts 33°
2026-05-08 08:11 9.29359 108.32841 35807 ft 471 kts 33°
2026-05-08 08:12 9.34841 108.36497 35809 ft 471 kts 33°
2026-05-08 08:12 9.40333 108.40161 35814 ft 470 kts 33°
2026-05-08 08:13 9.45786 108.43801 35818 ft 469 kts 33°
2026-05-08 08:13 9.51250 108.47448 35824 ft 470 kts 33°
2026-05-08 08:14 9.56738 108.51111 35826 ft 469 kts 33°
2026-05-08 08:14 9.62194 108.54754 35825 ft 469 kts 33°
2026-05-08 08:15 9.67657 108.58404 35826 ft 469 kts 33°
2026-05-08 08:15 9.73103 108.62043 35825 ft 469 kts 33°
2026-05-08 08:16 9.78560 108.65691 35824 ft 468 kts 33°
2026-05-08 08:16 9.84012 108.69338 35821 ft 470 kts 33°
2026-05-08 08:17 9.89487 108.73001 35819 ft 468 kts 33°
2026-05-08 08:17 9.94916 108.76635 35823 ft 469 kts 33°
2026-05-08 08:18 10.00368 108.80286 35821 ft 468 kts 33°
2026-05-08 08:18 10.05828 108.83939 35818 ft 468 kts 33°
2026-05-08 08:19 10.11274 108.87584 35825 ft 469 kts 33°
2026-05-08 08:19 10.16767 108.91262 35827 ft 469 kts 33°
2026-05-08 08:20 10.22218 108.94913 35823 ft 469 kts 33°
2026-05-08 08:20 10.27657 108.98559 35814 ft 467 kts 33°
2026-05-08 08:21 10.33065 109.02185 35812 ft 467 kts 33°
2026-05-08 08:21 10.38508 109.05836 35809 ft 467 kts 33°
2026-05-08 08:22 10.43943 109.09483 35808 ft 468 kts 33°
2026-05-08 08:22 10.49402 109.13148 35810 ft 469 kts 33°
2026-05-08 08:23 10.54831 109.16794 35806 ft 468 kts 33°
2026-05-08 08:23 10.60282 109.20457 35808 ft 466 kts 33°
2026-05-08 08:24 10.65708 109.24104 35808 ft 467 kts 33°
2026-05-08 08:24 10.71169 109.27776 35806 ft 467 kts 33°
2026-05-08 08:25 10.76572 109.31412 35807 ft 468 kts 33°
2026-05-08 08:25 10.82035 109.35089 35808 ft 466 kts 33°
2026-05-08 08:26 10.87436 109.38725 35810 ft 468 kts 33°
2026-05-08 08:26 10.92886 109.42397 35820 ft 466 kts 33°